N0EDB-13 Weather Reports


Display with metric or nautical units.
time (UTC)temp
F
wind
direction
speed
MPH
gust
MPH
rain 1hr
in
rain 24hr
in
rain mn
in
humidity
%
barometer
mb
20260906213727 89 302 1.0 2.0 0.00 0.00 0.00 36 1445.1
20260906213227 88 270 1.0 3.0 0.00 0.00 0.00 37 1446.5
20260906212726 88 0 0.0 0.0 0.00 0.00 0.00 38 1447.0
20260906212226 88 328 1.0 3.0 0.00 0.00 0.00 37 1447.1
20260906211725 88 0 0.0 0.0 0.00 0.00 0.00 39 1447.2
20260906211224 88 189 0.0 1.0 0.00 0.00 0.00 38 1446.9
20260906210724 89 112 2.0 3.0 0.00 0.00 0.00 38 1446.4
20260906210223 89 165 0.0 2.0 0.00 0.00 0.00 37 1446.1
20260906205722 89 202 0.0 2.0 0.00 0.00 0.00 37 1445.8
20260906205221 90 69 1.0 4.0 0.00 0.00 0.00 37 1445.2
20260906204720 90 86 1.0 3.0 0.00 0.00 0.00 36 1444.7
20260906204220 92 84 2.0 5.0 0.00 0.00 0.00 35 1443.1
20260906203720 92 107 0.0 3.0 0.00 0.00 0.00 30 1442.0
20260906203219 92 88 1.0 2.0 0.00 0.00 0.00 33 1442.5
20260906202719 92 155 1.0 3.0 0.00 0.00 0.00 34 1443.0
20260906202218 92 277 1.0 4.0 0.00 0.00 0.00 34 1443.2
20260906201718 91 86 0.0 0.0 0.00 0.00 0.00 33 1444.2
20260906201216 90 291 1.0 3.0 0.00 0.00 0.00 33 1445.2
20260906200716 90 240 2.0 7.0 0.00 0.00 0.00 32 1445.3
20260906200216 90 292 2.0 4.0 0.00 0.00 0.00 33 1445.2
20260906195715 91 242 1.0 3.0 0.00 0.00 0.00 33 1444.8
20260906195214 90 287 1.0 5.0 0.00 0.00 0.00 35 1445.6
20260906194714 89 328 2.0 5.0 0.00 0.00 0.00 35 1446.7
20260906194214 89 285 2.0 3.0 0.00 0.00 0.00 38 1447.3
20260906193712 89 347 2.0 4.0 0.00 0.00 0.00 38 1447.6
20260906193212 89 314 2.0 4.0 0.00 0.00 0.00 40 1447.3
20260906192711 89 327 2.0 4.0 0.00 0.00 0.00 38 1447.2
20260906192210 89 316 1.0 2.0 0.00 0.00 0.00 40 1447.8
20260906191710 88 96 1.0 2.0 0.00 0.00 0.00 40 1448.4
20260906191209 88 74 2.0 5.0 0.00 0.00 0.00 42 1449.0
20260906190707 87 353 0.0 2.0 0.00 0.00 0.00 43 1450.2
20260906190206 86 51 1.0 3.0 0.00 0.00 0.00 44 1451.4
20260906185705 86 96 2.0 4.0 0.00 0.00 0.00 45 1452.3
20260906185205 85 138 1.0 2.0 0.00 0.00 0.00 47 1454.0
20260906184703 85 96 2.0 4.0 0.00 0.00 0.00 48 1454.4
20260906184203 85 67 2.0 5.0 0.00 0.00 0.00 47 1453.6
20260906183702 85 74 1.0 3.0 0.00 0.00 0.00 47 1454.1
20260906183202 85 94 2.0 4.0 0.00 0.00 0.00 47 1454.2
20260906182702 85 100 2.0 3.0 0.00 0.00 0.00 48 1454.9
20260906182201 84 52 1.0 4.0 0.00 0.00 0.00 49 1455.7
20260906181700 84 0 0.0 0.0 0.00 0.00 0.00 49 1456.6
20260906181200 83 294 1.0 3.0 0.00 0.00 0.00 50 1457.7
20260906180658 82 336 1.0 2.0 0.00 0.00 0.00 52 1459.0
20260906180157 82 281 2.0 3.0 0.00 0.00 0.00 53 1459.3
20260906175657 82 286 3.0 4.0 0.00 0.00 0.00 52 1459.8
20260906175157 81 57 1.0 3.0 0.00 0.00 0.00 53 1460.9
20260906174656 81 273 1.0 3.0 0.00 0.00 0.00 53 1461.6
20260906174155 80 287 2.0 5.0 0.00 0.00 0.00 54 1462.3
20260906173654 80 258 1.0 3.0 0.00 0.00 0.00 55 1462.9
20260906173153 80 104 3.0 5.0 0.00 0.00 0.00 55 1463.4
20260906172653 80 212 2.0 4.0 0.00 0.00 0.00 56 1463.3
20260906172152 80 256 2.0 5.0 0.00 0.00 0.00 57 1462.4
20260906171652 81 297 1.0 2.0 0.00 0.00 0.00 55 1462.1
20260906171151 80 351 1.0 3.0 0.00 0.00 0.00 54 1463.5
20260906170648 79 306 0.0 2.0 0.00 0.00 0.00 56 1465.6
20260906170147 78 291 0.0 1.0 0.00 0.00 0.00 59 1467.1
20260906165647 77 286 1.0 4.0 0.00 0.00 0.00 60 1467.9
20260906165146 76 273 2.0 4.0 0.00 0.00 0.00 62 1469.1
20260906164645 76 248 1.0 4.0 0.00 0.00 0.00 61 1469.3
20260906164145 76 306 0.0 1.0 0.00 0.00 0.00 62 1470.0
20260906163644 76 0 0.0 0.0 0.00 0.00 0.00 61 1470.3
20260906163144 75 340 1.0 3.0 0.00 0.00 0.00 62 1470.5
20260906162643 75 258 1.0 4.0 0.00 0.00 0.00 62 1471.1
20260906162142 74 327 2.0 3.0 0.00 0.00 0.00 63 1472.1
20260906161642 73 260 0.0 2.0 0.00 0.00 0.00 66 1473.5
20260906161141 72 293 2.0 5.0 0.00 0.00 0.00 67 1474.4
20260906160641 72 278 2.0 5.0 0.00 0.00 0.00 68 1475.5
20260906160141 71 288 2.0 4.0 0.00 0.00 0.00 69 1476.1
20260906155640 71 297 1.0 3.0 0.00 0.00 0.00 70 1476.8
20260906155140 70 278 2.0 4.0 0.00 0.00 0.00 71 1477.7
20260906154634 70 320 1.0 3.0 0.00 0.00 0.00 71 1478.3
20260906154134 70 311 1.0 2.0 0.00 0.00 0.00 73 1479.1
20260906153632 69 262 0.0 2.0 0.00 0.00 0.00 73 1479.5
20260906153132 69 282 2.0 4.0 0.00 0.00 0.00 74 1480.0
20260906152632 68 273 2.0 3.0 0.00 0.00 0.00 75 1480.8
20260906152132 68 325 0.0 1.0 0.00 0.00 0.00 76 1481.4
20260906151631 68 328 0.0 2.0 0.00 0.00 0.00 76 1481.7
20260906151130 68 280 1.0 3.0 0.00 0.00 0.00 77 1482.3
20260906150629 67 324 1.0 3.0 0.00 0.00 0.00 77 1482.9
20260906150129 67 320 1.0 2.0 0.00 0.00 0.00 78 1483.3
20260906145629 67 284 2.0 3.0 0.00 0.00 0.00 78 1483.3
20260906145128 67 295 1.0 3.0 0.00 0.00 0.00 78 1483.5
20260906144628 67 297 2.0 5.0 0.00 0.00 0.00 78 1483.9
20260906144127 66 334 2.0 3.0 0.00 0.00 0.00 80 1484.7
20260906143627 66 293 2.0 3.0 0.00 0.00 0.00 80 1485.1
20260906143127 65 65 0.0 1.0 0.00 0.00 0.00 80 1485.7
20260906142626 65 310 1.0 2.0 0.00 0.00 0.00 81 1486.3
20260906142126 65 285 1.0 4.0 0.00 0.00 0.00 81 1486.7
20260906141625 64 279 1.0 3.0 0.00 0.00 0.00 82 1487.0
20260906141124 64 273 1.0 3.0 0.00 0.00 0.00 82 1487.5
20260906140623 64 283 0.0 1.0 0.00 0.00 0.00 82 1487.6
20260906140122 64 302 1.0 2.0 0.00 0.00 0.00 82 1487.8
20260906135621 64 273 1.0 2.0 0.00 0.00 0.00 83 1488.4
20260906135120 63 277 0.0 1.0 0.00 0.00 0.00 83 1489.0
20260906134619 63 262 0.0 2.0 0.00 0.00 0.00 83 1489.5
20260906134118 62 288 0.0 0.0 0.00 0.00 0.00 83 1489.8
20260906133618 62 0 0.0 0.0 0.00 0.00 0.00 84 1490.0
20260906133117 62 302 0.0 1.0 0.00 0.00 0.00 84 1490.1
20260906132616 62 302 1.0 2.0 0.00 0.00 0.00 84 1490.5
20260906132116 62 252 0.0 2.0 0.00 0.00 0.00 84 1490.9
20260906131614 61 242 0.0 1.0 0.00 0.00 0.00 85 1491.6
20260906131114 61 0 0.0 0.0 0.00 0.00 0.00 85 1492.3
20260906130614 60 200 0.0 1.0 0.00 0.00 0.00 86 1493.0
20260906130114 60 0 0.0 0.0 0.00 0.00 0.00 85 1493.2
20260906125613 60 0 0.0 0.0 0.00 0.00 0.00 85 1493.5
20260906125113 60 0 0.0 0.0 0.00 0.00 0.00 85 1493.7
20260906124612 60 0 0.0 0.0 0.00 0.00 0.00 85 1493.7
20260906124111 60 232 0.0 1.0 0.00 0.00 0.00 85 1494.0
20260906123611 59 196 0.0 1.0 0.00 0.00 0.00 84 1494.1
20260906123110 59 304 0.0 1.0 0.00 0.00 0.00 85 1494.4
20260906122609 59 0 0.0 0.0 0.00 0.00 0.00 83 1494.3
20260906122109 60 0 0.0 0.0 0.00 0.00 0.00 83 1493.6
20260906121608 60 0 0.0 0.0 0.00 0.00 0.00 83 1493.4
20260906121107 60 0 0.0 0.0 0.00 0.00 0.00 83 1493.2
20260906120607 60 0 0.0 0.0 0.00 0.00 0.00 82 1492.9
20260906120107 60 0 0.0 0.0 0.00 0.00 0.00 83 1492.5
20260906115606 60 0 0.0 0.0 0.00 0.00 0.00 83 1492.3
20260906115105 60 291 0.0 1.0 0.00 0.00 0.00 83 1492.3
20260906114604 61 0 0.0 0.0 0.00 0.00 0.00 82 1492.1
20260906114104 61 0 0.0 0.0 0.00 0.00 0.00 82 1491.7
20260906113603 61 0 0.0 0.0 0.00 0.00 0.00 82 1491.5
20260906113103 61 284 0.0 1.0 0.00 0.00 0.00 82 1491.5
20260906112602 61 0 0.0 0.0 0.00 0.00 0.00 81 1491.2
20260906112102 61 286 0.0 1.0 0.00 0.00 0.00 81 1491.0
20260906111601 61 0 0.0 0.0 0.00 0.00 0.00 81 1491.0
20260906111100 61 288 0.0 1.0 0.00 0.00 0.00 82 1491.3
20260906110559 61 0 0.0 0.0 0.00 0.00 0.00 83 1492.0
20260906110059 61 0 0.0 0.0 0.00 0.00 0.00 82 1491.7
20260906105559 61 319 0.0 1.0 0.00 0.00 0.00 83 1491.6
20260906105057 61 0 0.0 0.0 0.00 0.00 0.00 83 1491.7
20260906104556 61 0 0.0 0.0 0.00 0.00 0.00 82 1491.5
20260906104055 61 0 0.0 0.0 0.00 0.00 0.00 81 1490.9
20260906103554 62 0 0.0 0.0 0.00 0.00 0.00 81 1490.4
20260906103054 62 231 0.0 1.0 0.00 0.00 0.00 81 1489.6
20260906102554 62 0 0.0 0.0 0.00 0.00 0.00 80 1488.8
20260906102054 63 0 0.0 0.0 0.00 0.00 0.00 79 1488.3
20260906101553 63 0 0.0 0.0 0.00 0.00 0.00 79 1487.9
20260906101053 63 0 0.0 0.0 0.00 0.00 0.00 78 1487.4
20260906100553 64 303 0.0 1.0 0.00 0.00 0.00 78 1486.6
20260906100053 65 0 0.0 0.0 0.00 0.00 0.00 76 1485.6
20260906095552 65 0 0.0 0.0 0.00 0.00 0.00 78 1485.0
20260906095052 65 0 0.0 0.0 0.00 0.00 0.00 77 1484.5
20260906094551 66 0 0.0 0.0 0.00 0.00 0.00 76 1484.0
20260906094050 66 0 0.0 0.0 0.00 0.00 0.00 75 1483.5
20260906093550 66 327 0.0 2.0 0.00 0.00 0.00 75 1483.3
20260906093049 66 320 1.0 2.0 0.00 0.00 0.00 75 1483.1
20260906092549 66 336 0.0 2.0 0.00 0.00 0.00 74 1482.8
20260906092049 66 282 2.0 3.0 0.00 0.00 0.00 73 1482.6
20260906091548 66 269 2.0 4.0 0.00 0.00 0.00 71 1482.5
20260906091047 66 285 1.0 3.0 0.00 0.00 0.00 70 1482.1
20260906090546 67 300 1.0 3.0 0.00 0.00 0.00 70 1481.5
20260906090045 67 291 1.0 3.0 0.00 0.00 0.00 70 1480.9
20260906085545 67 313 1.0 3.0 0.00 0.00 0.00 70 1480.6
20260906085044 67 311 1.0 3.0 0.00 0.00 0.00 70 1480.4
20260906084543 67 311 0.0 1.0 0.00 0.00 0.00 70 1479.9
20260906084043 68 290 1.0 3.0 0.00 0.00 0.00 69 1479.6
20260906083542 68 284 2.0 6.0 0.00 0.00 0.00 69 1479.5
20260906083042 68 309 1.0 3.0 0.00 0.00 0.00 69 1479.5
20260906082542 68 291 2.0 5.0 0.00 0.00 0.00 69 1479.4
20260906082041 68 292 3.0 6.0 0.00 0.00 0.00 69 1479.5
20260906081541 68 303 2.0 4.0 0.00 0.00 0.00 69 1479.5
20260906081040 68 295 2.0 4.0 0.00 0.00 0.00 68 1479.7
20260906080540 68 309 2.0 4.0 0.00 0.00 0.00 68 1479.5
20260906080039 68 300 2.0 4.0 0.00 0.00 0.00 67 1479.3
20260906075539 68 305 3.0 5.0 0.00 0.00 0.00 67 1479.3
20260906075038 68 311 2.0 5.0 0.00 0.00 0.00 66 1479.6
20260906074538 67 285 2.0 3.0 0.00 0.00 0.00 65 1480.4
20260906074037 67 318 1.0 2.0 0.00 0.00 0.00 64 1481.1
20260906073537 67 289 1.0 2.0 0.00 0.00 0.00 64 1481.2
20260906073036 67 307 1.0 3.0 0.00 0.00 0.00 63 1481.1
20260906072535 67 293 1.0 2.0 0.00 0.00 0.00 62 1480.5
20260906072034 68 284 1.0 3.0 0.00 0.00 0.00 61 1479.7
20260906071533 68 269 1.0 3.0 0.00 0.00 0.00 58 1479.0
20260906071033 68 272 2.0 4.0 0.00 0.00 0.00 57 1478.3
20260906070532 69 295 1.0 4.0 0.00 0.00 0.00 54 1477.4
20260906070029 70 276 0.0 2.0 0.00 0.00 0.00 52 1476.8
20260906065529 70 231 2.0 3.0 0.00 0.00 0.00 51 1476.5
20260906065028 70 300 1.0 2.0 0.00 0.00 0.00 51 1476.5
20260906064528 70 266 1.0 4.0 0.00 0.00 0.00 51 1476.8
20260906064028 70 262 1.0 2.0 0.00 0.00 0.00 52 1476.9
20260906063526 70 248 0.0 2.0 0.00 0.00 0.00 53 1476.5
20260906063025 70 286 0.0 1.0 0.00 0.00 0.00 53 1476.1
20260906062524 70 301 1.0 2.0 0.00 0.00 0.00 54 1476.3
20260906062023 70 274 0.0 1.0 0.00 0.00 0.00 55 1476.4
20260906061523 70 235 0.0 1.0 0.00 0.00 0.00 54 1476.8
20260906061022 69 299 1.0 2.0 0.00 0.00 0.00 55 1477.1
20260906060522 69 259 0.0 1.0 0.00 0.00 0.00 56 1477.1
20260906060021 70 0 0.0 0.0 0.00 0.00 0.00 55 1476.1
20260906055521 71 0 0.0 0.0 0.00 0.00 0.00 53 1475.5
20260906055020 71 0 0.0 0.0 0.00 0.00 0.00 53 1475.3
20260906054519 71 0 0.0 0.0 0.00 0.00 0.00 52 1474.8
20260906054018 71 124 0.0 1.0 0.00 0.00 0.00 51 1474.8
20260906053517 71 118 3.0 5.0 0.00 0.00 0.00 50 1475.3
20260906053017 70 129 2.0 3.0 0.00 0.00 0.00 50 1475.8
20260906052516 70 123 0.0 1.0 0.00 0.00 0.00 50 1476.1
20260906052015 70 0 0.0 0.0 0.00 0.00 0.00 51 1476.1
20260906051514 70 0 0.0 0.0 0.00 0.00 0.00 50 1475.8
20260906051014 70 201 0.0 1.0 0.00 0.00 0.00 50 1475.8
20260906050513 70 0 0.0 0.0 0.00 0.00 0.00 50 1476.4
20260906050012 69 167 1.0 3.0 0.00 0.00 0.00 50 1477.8
20260906045511 68 139 2.0 4.0 0.00 0.00 0.00 53 1479.9
20260906045010 68 0 0.0 0.0 0.00 0.00 0.00 54 1479.2
20260906044510 69 0 0.0 0.0 0.00 0.00 0.00 54 1477.7
20260906044009 70 0 0.0 0.0 0.00 0.00 0.00 52 1475.9
20260906043508 70 0 0.0 0.0 0.00 0.00 0.00 50 1474.5
20260906043007 71 0 0.0 0.0 0.00 0.00 0.00 50 1473.8
20260906042507 71 0 0.0 0.0 0.00 0.00 0.00 48 1473.3
20260906042007 72 0 0.0 0.0 0.00 0.00 0.00 48 1472.8
20260906041506 72 0 0.0 0.0 0.00 0.00 0.00 47 1472.3
20260906041005 72 0 0.0 0.0 0.00 0.00 0.00 47 1472.0
20260906040505 72 105 0.0 2.0 0.00 0.00 0.00 46 1471.6
20260906040003 72 302 1.0 2.0 0.00 0.00 0.00 47 1471.7
20260906035502 72 333 1.0 2.0 0.00 0.00 0.00 46 1472.0
20260906035002 73 0 0.0 0.0 0.00 0.00 0.00 46 1470.8
20260906034502 74 0 0.0 0.0 0.00 0.00 0.00 44 1469.6
20260906034002 74 0 0.0 0.0 0.00 0.00 0.00 43 1468.4
20260906033500 75 0 0.0 0.0 0.00 0.00 0.00 42 1467.0
20260906032959 76 0 0.0 0.0 0.00 0.00 0.00 41 1466.1
20260906032459 76 287 1.0 2.0 0.00 0.00 0.00 40 1466.2
20260906031959 76 303 1.0 3.0 0.00 0.00 0.00 41 1466.3
20260906031458 76 291 0.0 1.0 0.00 0.00 0.00 41 1465.4
20260906030957 77 267 0.0 1.0 0.00 0.00 0.00 40 1464.2
20260906030457 77 297 1.0 3.0 0.00 0.00 0.00 39 1463.3
20260906025957 78 288 2.0 3.0 0.00 0.00 0.00 38 1462.8
20260906025456 78 313 1.0 3.0 0.00 0.00 0.00 36 1462.9
20260906024955 77 322 0.0 1.0 0.00 0.00 0.00 37 1463.1
20260906024455 77 325 0.0 2.0 0.00 0.00 0.00 37 1463.5
20260906023954 77 295 1.0 3.0 0.00 0.00 0.00 38 1464.0
20260906023453 77 293 2.0 3.0 0.00 0.00 0.00 39 1463.2
20260906022953 78 270 2.0 3.0 0.00 0.00 0.00 38 1462.2
20260906022452 78 265 1.0 2.0 0.00 0.00 0.00 37 1461.7
20260906021952 78 322 2.0 4.0 0.00 0.00 0.00 37 1462.0
20260906021451 78 275 1.0 2.0 0.00 0.00 0.00 37 1461.4
20260906020950 79 267 1.0 2.0 0.00 0.00 0.00 37 1460.8
20260906020450 79 280 2.0 3.0 0.00 0.00 0.00 36 1460.5
20260906015950 79 274 1.0 4.0 0.00 0.00 0.00 36 1460.1
20260906015449 79 267 1.0 3.0 0.00 0.00 0.00 36 1459.5
20260906014948 80 269 1.0 2.0 0.00 0.00 0.00 36 1458.8
20260906014448 81 279 1.0 3.0 0.00 0.00 0.00 35 1457.8
20260906013946 81 269 2.0 5.0 0.00 0.00 0.00 34 1456.6
20260906013445 82 283 2.0 3.0 0.00 0.00 0.00 33 1455.2
20260906012944 83 252 3.0 4.0 0.00 0.00 0.00 31 1454.4
20260906012443 83 245 3.0 6.0 0.00 0.00 0.00 31 1454.2
20260906011942 84 268 3.0 5.0 0.00 0.00 0.00 31 1453.5
20260906011441 84 264 3.0 5.0 0.00 0.00 0.00 31 1452.4
20260906010941 85 273 3.0 6.0 0.00 0.00 0.00 30 1451.4
20260906010441 86 254 3.0 4.0 0.00 0.00 0.00 29 1450.5
20260906005940 86 257 4.0 5.0 0.00 0.00 0.00 28 1449.8
20260906005439 87 252 3.0 6.0 0.00 0.00 0.00 28 1449.0
20260906004938 87 235 4.0 5.0 0.00 0.00 0.00 27 1448.3
20260906004438 88 263 4.0 5.0 0.00 0.00 0.00 27 1447.7
20260906003937 88 261 3.0 6.0 0.00 0.00 0.00 26 1447.1
20260906003437 89 269 2.0 3.0 0.00 0.00 0.00 26 1446.3
20260906002936 89 251 2.0 3.0 0.00 0.00 0.00 25 1445.8
20260906002435 89 247 2.0 3.0 0.00 0.00 0.00 25 1445.4
20260906001935 90 251 2.0 3.0 0.00 0.00 0.00 25 1445.0
20260906001434 90 260 3.0 4.0 0.00 0.00 0.00 24 1444.7
20260906000934 90 254 3.0 6.0 0.00 0.00 0.00 24 1444.5
20260906000433 90 235 3.0 4.0 0.00 0.00 0.00 24 1444.2
20260905235933 90 269 1.0 2.0 0.00 0.00 0.00 27 1443.8
20260905235433 91 244 1.0 2.0 0.00 0.00 0.00 25 1443.2
20260905234933 91 262 1.0 2.0 0.00 0.00 0.00 25 1442.8
20260905234433 92 268 1.0 2.0 0.00 0.00 0.00 24 1442.1
20260905233932 93 288 2.0 3.0 0.00 0.00 0.00 24 1440.8
20260905233431 94 283 2.0 3.0 0.00 0.00 0.00 23 1439.3
20260905232930 95 289 2.0 3.0 0.00 0.00 0.00 22 1437.3
20260905232430 97 291 1.0 2.0 0.00 0.00 0.00 22 1435.4
20260905231929 97 302 1.0 3.0 0.00 0.00 0.00 22 1434.7
20260905231429 97 283 2.0 4.0 0.00 0.00 0.00 22 1434.5
20260905230928 98 279 3.0 6.0 0.00 0.00 0.00 23 1433.4
20260905230427 98 271 1.0 3.0 0.00 0.00 0.00 23 1433.2
20260905225927 98 359 2.0 3.0 0.00 0.00 0.00 21 1433.7
20260905225426 98 95 1.0 2.0 0.00 0.00 0.00 21 1433.9
20260905224926 98 0 0.0 0.0 0.00 0.00 0.00 22 1433.9
20260905224425 98 80 1.0 3.0 0.00 0.00 0.00 20 1433.5
20260905223923 97 110 1.0 3.0 0.00 0.00 0.00 21 1434.2
20260905223423 97 313 1.0 2.0 0.00 0.00 0.00 22 1434.8
20260905222923 97 242 0.0 2.0 0.00 0.00 0.00 22 1435.2
20260905222422 97 278 3.0 5.0 0.00 0.00 0.00 22 1434.9
20260905221922 97 271 1.0 3.0 0.00 0.00 0.00 22 1434.9
20260905221420 98 107 1.0 3.0 0.00 0.00 0.00 21 1434.3
20260905220920 98 270 0.0 2.0 0.00 0.00 0.00 21 1433.2
20260905220419 98 276 1.0 3.0 0.00 0.00 0.00 21 1433.5
20260905215918 98 59 1.0 5.0 0.00 0.00 0.00 21 1433.8
20260905215418 98 296 0.0 1.0 0.00 0.00 0.00 22 1434.6
20260905214917 98 81 2.0 3.0 0.00 0.00 0.00 21 1434.2
20260905214416 98 260 1.0 3.0 0.00 0.00 0.00 22 1433.8
20260905213915 98 322 2.0 5.0 0.00 0.00 0.00 21 1433.6